| time (UTC) | temp F | wind direction | speed MPH | gust MPH | rain 1hr in | rain 24hr in | rain mn in | humidity % | barometer mb |
| 20260507040541 | 43 | 324 | 1.0 | 2.0 | 0.00 | 0.00 | 0.00 | 95 | 1006.1 |
| 20260507040049 | 43 | 324 | 1.0 | 2.0 | 0.00 | 0.00 | 0.00 | 95 | 1006.1 |
| 20260507035545 | 43 | 324 | 0.0 | 2.0 | 0.00 | 0.00 | 0.00 | 95 | 1006.2 |
| 20260507035045 | 43 | 324 | 1.0 | 2.0 | 0.00 | 0.00 | 0.00 | 95 | 1006.4 |
| 20260507034552 | 43 | 324 | 0.0 | 1.0 | 0.00 | 0.00 | 0.00 | 96 | 1006.3 |
| 20260507034044 | 43 | 324 | 0.0 | 1.0 | 0.00 | 0.00 | 0.00 | 96 | 1006.5 |
| 20260507033542 | 43 | 324 | 0.0 | 1.0 | 0.00 | 0.00 | 0.00 | 96 | 1006.4 |
| 20260507033050 | 43 | 0 | 0.0 | 0.0 | 0.00 | 0.00 | 0.00 | 96 | 1006.4 |
| 20260507032546 | 43 | 0 | 0.0 | 0.0 | 0.00 | 0.00 | 0.00 | 96 | 1006.4 |
| 20260507032041 | 43 | 0 | 0.0 | 1.0 | 0.00 | 0.00 | 0.00 | 96 | 1006.4 |
| 20260507031551 | 43 | 0 | 0.0 | 1.0 | 0.00 | 0.00 | 0.00 | 96 | 1006.5 |
| 20260507031044 | 43 | 0 | 0.0 | 1.0 | 0.00 | 0.00 | 0.00 | 96 | 1006.4 |
| 20260507030542 | 43 | 0 | 0.0 | 1.0 | 0.00 | 0.00 | 0.00 | 96 | 1006.4 |
| 20260507030059 | 43 | 324 | 1.0 | 2.0 | 0.00 | 0.00 | 0.00 | 96 | 1006.4 |
| 20260507025541 | 43 | 324 | 1.0 | 2.0 | 0.00 | 0.00 | 0.00 | 96 | 1006.5 |
| 20260507025050 | 43 | 324 | 1.0 | 2.0 | 0.00 | 0.00 | 0.00 | 96 | 1006.3 |
| 20260507024613 | 43 | 324 | 1.0 | 2.0 | 0.00 | 0.00 | 0.00 | 96 | 1006.2 |
| 20260507024045 | 43 | 324 | 1.0 | 2.0 | 0.00 | 0.00 | 0.00 | 96 | 1006.2 |
| 20260507023546 | 43 | 324 | 0.0 | 2.0 | 0.00 | 0.00 | 0.00 | 96 | 1006.1 |
| 20260507023051 | 43 | 324 | 1.0 | 2.0 | 0.00 | 0.00 | 0.00 | 96 | 1006.1 |
| 20260507022549 | 43 | 324 | 0.0 | 3.0 | 0.00 | 0.00 | 0.00 | 96 | 1006.3 |
| 20260507022041 | 43 | 324 | 1.0 | 3.0 | 0.00 | 0.00 | 0.00 | 96 | 1006.0 |
| 20260507021547 | 43 | 324 | 0.0 | 1.0 | 0.00 | 0.00 | 0.00 | 96 | 1006.0 |
| 20260507021046 | 43 | 0 | 0.0 | 0.0 | 0.00 | 0.00 | 0.00 | 96 | 1005.9 |
| 20260507020546 | 43 | 0 | 0.0 | 1.0 | 0.00 | 0.00 | 0.00 | 96 | 1005.8 |
| 20260507020106 | 43 | 0 | 0.0 | 1.0 | 0.00 | 0.00 | 0.00 | 96 | 1005.6 |
| 20260507015541 | 43 | 324 | 0.0 | 2.0 | 0.00 | 0.00 | 0.00 | 96 | 1005.6 |
| 20260507015041 | 43 | 324 | 0.0 | 4.0 | 0.00 | 0.00 | 0.00 | 96 | 1005.8 |
| 20260507014602 | 44 | 324 | 1.0 | 4.0 | 0.00 | 0.00 | 0.00 | 96 | 1005.9 |
| 20260507014041 | 43 | 324 | 2.0 | 4.0 | 0.00 | 0.00 | 0.00 | 96 | 1006.1 |
| 20260507013544 | 44 | 324 | 1.0 | 3.0 | 0.00 | 0.00 | 0.00 | 96 | 1005.8 |
| 20260507013051 | 44 | 324 | 1.0 | 3.0 | 0.00 | 0.00 | 0.00 | 96 | 1005.5 |
| 20260507012545 | 44 | 324 | 0.0 | 2.0 | 0.00 | 0.00 | 0.00 | 96 | 1005.3 |
| 20260507012045 | 44 | 324 | 1.0 | 2.0 | 0.00 | 0.00 | 0.00 | 96 | 1005.4 |
| 20260507011553 | 44 | 324 | 0.0 | 1.0 | 0.00 | 0.00 | 0.00 | 96 | 1005.4 |
| 20260507011042 | 44 | 324 | 0.0 | 2.0 | 0.00 | 0.00 | 0.00 | 96 | 1005.5 |
| 20260507010541 | 44 | 324 | 1.0 | 2.0 | 0.00 | 0.00 | 0.00 | 96 | 1005.5 |
| 20260507010049 | 44 | 324 | 1.0 | 2.0 | 0.00 | 0.00 | 0.00 | 96 | 1005.6 |
| 20260507005544 | 44 | 324 | 0.0 | 1.0 | 0.00 | 0.00 | 0.00 | 96 | 1005.6 |
| 20260507005043 | 44 | 324 | 0.0 | 1.0 | 0.00 | 0.00 | 0.00 | 96 | 1005.6 |
| 20260507004551 | 44 | 0 | 0.0 | 2.0 | 0.00 | 0.00 | 0.00 | 96 | 1005.4 |
| 20260507004043 | 44 | 0 | 0.0 | 2.0 | 0.00 | 0.00 | 0.00 | 96 | 1005.4 |
| 20260507003542 | 44 | 324 | 0.0 | 4.0 | 0.00 | 0.00 | 0.00 | 96 | 1005.4 |
| 20260507003053 | 44 | 324 | 1.0 | 4.0 | 0.00 | 0.00 | 0.00 | 96 | 1005.8 |
| 20260507002542 | 44 | 324 | 1.0 | 2.0 | 0.00 | 0.00 | 0.00 | 96 | 1005.6 |
| 20260507002043 | 44 | 324 | 0.0 | 1.0 | 0.00 | 0.00 | 0.00 | 96 | 1005.4 |
| 20260507001557 | 44 | 324 | 0.0 | 1.0 | 0.00 | 0.00 | 0.00 | 96 | 1005.3 |
| 20260507001044 | 44 | 324 | 0.0 | 1.0 | 0.00 | 0.00 | 0.00 | 96 | 1005.3 |
| 20260507000546 | 45 | 324 | 0.0 | 1.0 | 0.00 | 0.00 | 0.00 | 96 | 1005.2 |
| 20260507000054 | 45 | 324 | 0.0 | 3.0 | 0.00 | 0.00 | 0.00 | 96 | 1005.3 |
| 20260506235544 | 45 | 324 | 0.0 | 4.0 | 0.00 | 0.00 | 0.00 | 96 | 1005.2 |
| 20260506235046 | 45 | 324 | 1.0 | 4.0 | 0.00 | 0.00 | 0.00 | 95 | 1005.2 |
| 20260506234555 | 45 | 324 | 1.0 | 4.0 | 0.00 | 0.00 | 0.00 | 95 | 1005.2 |
| 20260506234043 | 46 | 324 | 1.0 | 3.0 | 0.00 | 0.00 | 0.00 | 95 | 1005.2 |
| 20260506233543 | 46 | 324 | 0.0 | 2.0 | 0.00 | 0.00 | 0.00 | 96 | 1005.3 |
| 20260506233059 | 46 | 324 | 0.0 | 3.0 | 0.00 | 0.00 | 0.00 | 96 | 1005.2 |
| 20260506232543 | 46 | 324 | 0.0 | 3.0 | 0.00 | 0.00 | 0.00 | 96 | 1005.3 |
| 20260506232045 | 46 | 0 | 0.0 | 2.0 | 0.00 | 0.00 | 0.00 | 96 | 1005.3 |
| 20260506231557 | 46 | 0 | 0.0 | 2.0 | 0.00 | 0.00 | 0.00 | 96 | 1005.0 |
| 20260506231045 | 46 | 324 | 0.0 | 2.0 | 0.00 | 0.00 | 0.00 | 96 | 1004.9 |
| 20260506230544 | 46 | 0 | 0.0 | 2.0 | 0.00 | 0.00 | 0.00 | 96 | 1004.8 |
| 20260506230057 | 46 | 0 | 0.0 | 2.0 | 0.00 | 0.00 | 0.00 | 96 | 1004.8 |
| 20260506225542 | 47 | 324 | 0.0 | 3.0 | 0.00 | 0.00 | 0.00 | 96 | 1004.8 |
| 20260506225043 | 46 | 0 | 0.0 | 4.0 | 0.00 | 0.00 | 0.00 | 96 | 1004.7 |
| 20260506224550 | 46 | 324 | 2.0 | 6.0 | 0.00 | 0.00 | 0.00 | 96 | 1004.3 |
| 20260506224042 | 46 | 324 | 2.0 | 7.0 | 0.00 | 0.00 | 0.00 | 95 | 1004.5 |
| 20260506223542 | 46 | 324 | 2.0 | 7.0 | 0.00 | 0.00 | 0.00 | 95 | 1004.5 |
| 20260506223056 | 47 | 324 | 2.0 | 7.0 | 0.00 | 0.00 | 0.00 | 95 | 1004.7 |
| 20260506222544 | 48 | 324 | 3.0 | 7.0 | 0.00 | 0.00 | 0.00 | 96 | 1004.5 |
| 20260506222041 | 49 | 324 | 2.0 | 5.0 | 0.00 | 0.00 | 0.00 | 96 | 1004.6 |
| 20260506221553 | 50 | 324 | 3.0 | 5.0 | 0.00 | 0.00 | 0.00 | 97 | 1004.5 |
| 20260506221044 | 50 | 324 | 0.0 | 1.0 | 0.00 | 0.00 | 0.00 | 98 | 1004.2 |
| 20260506220545 | 49 | 0 | 0.0 | 1.0 | 0.00 | 0.00 | 0.00 | 96 | 1004.2 |
| 20260506220050 | 50 | 0 | 0.0 | 1.0 | 0.00 | 0.00 | 0.00 | 95 | 1004.2 |
| 20260506215544 | 52 | 324 | 0.0 | 0.0 | 0.00 | 0.00 | 0.00 | 98 | 1004.3 |
| 20260506215044 | 52 | 0 | 0.0 | 0.0 | 0.00 | 0.00 | 0.00 | 98 | 1004.1 |
| 20260506214552 | 51 | 0 | 0.0 | 0.0 | 0.00 | 0.00 | 0.00 | 98 | 1004.1 |
| 20260506214045 | 51 | 0 | 0.0 | 0.0 | 0.00 | 0.00 | 0.00 | 97 | 1004.3 |
| 20260506213545 | 50 | 0 | 0.0 | 1.0 | 0.00 | 0.00 | 0.00 | 97 | 1004.3 |
| 20260506213104 | 50 | 0 | 0.0 | 1.0 | 0.00 | 0.00 | 0.00 | 96 | 1004.4 |
| 20260506212542 | 51 | 0 | 0.0 | 1.0 | 0.00 | 0.00 | 0.00 | 96 | 1004.4 |
| 20260506212044 | 51 | 0 | 0.0 | 0.0 | 0.00 | 0.00 | 0.00 | 97 | 1004.5 |
| 20260506211603 | 51 | 0 | 0.0 | 0.0 | 0.00 | 0.00 | 0.00 | 97 | 1004.5 |
| 20260506211043 | 51 | 0 | 0.0 | 0.0 | 0.00 | 0.00 | 0.00 | 96 | 1004.6 |
| 20260506210543 | 51 | 0 | 0.0 | 0.0 | 0.00 | 0.00 | 0.00 | 96 | 1004.5 |
| 20260506210051 | 52 | 0 | 0.0 | 0.0 | 0.00 | 0.00 | 0.00 | 97 | 1004.5 |
| 20260506205545 | 51 | 0 | 0.0 | 0.0 | 0.00 | 0.00 | 0.00 | 96 | 1004.5 |
| 20260506205046 | 52 | 0 | 0.0 | 0.0 | 0.00 | 0.00 | 0.00 | 96 | 1004.5 |
| 20260506204555 | 53 | 0 | 0.0 | 0.0 | 0.00 | 0.00 | 0.00 | 97 | 1004.3 |
| 20260506204041 | 53 | 0 | 0.0 | 1.0 | 0.00 | 0.00 | 0.00 | 97 | 1004.4 |
| 20260506203545 | 53 | 0 | 0.0 | 1.0 | 0.00 | 0.00 | 0.00 | 97 | 1004.5 |
| 20260506203052 | 53 | 0 | 0.0 | 1.0 | 0.00 | 0.00 | 0.00 | 96 | 1004.4 |
| 20260506202547 | 53 | 0 | 0.0 | 0.0 | 0.00 | 0.00 | 0.00 | 98 | 1004.5 |
| 20260506202047 | 53 | 0 | 0.0 | 0.0 | 0.00 | 0.00 | 0.00 | 98 | 1004.5 |
| 20260506201601 | 53 | 0 | 0.0 | 1.0 | 0.00 | 0.00 | 0.00 | 97 | 1004.5 |
| 20260506201044 | 53 | 0 | 0.0 | 1.0 | 0.00 | 0.00 | 0.00 | 97 | 1004.6 |
| 20260506200545 | 52 | 324 | 0.0 | 1.0 | 0.00 | 0.00 | 0.00 | 97 | 1004.7 |
| 20260506200053 | 52 | 0 | 0.0 | 2.0 | 0.00 | 0.00 | 0.00 | 96 | 1004.7 |
| 20260506195543 | 52 | 324 | 0.0 | 2.0 | 0.00 | 0.00 | 0.00 | 96 | 1004.7 |
| 20260506195042 | 53 | 324 | 0.0 | 0.0 | 0.00 | 0.00 | 0.00 | 96 | 1004.7 |
| 20260506194557 | 53 | 0 | 0.0 | 0.0 | 0.00 | 0.00 | 0.00 | 96 | 1004.6 |
| 20260506194045 | 54 | 324 | 0.0 | 1.0 | 0.00 | 0.00 | 0.00 | 97 | 1004.8 |
| 20260506193544 | 54 | 0 | 0.0 | 1.0 | 0.00 | 0.00 | 0.00 | 97 | 1005.0 |
| 20260506193048 | 54 | 0 | 0.0 | 1.0 | 0.00 | 0.00 | 0.00 | 97 | 1005.1 |
| 20260506192548 | 54 | 0 | 0.0 | 1.0 | 0.00 | 0.00 | 0.00 | 97 | 1005.0 |
| 20260506192044 | 54 | 0 | 0.0 | 0.0 | 0.00 | 0.00 | 0.00 | 97 | 1005.0 |
| 20260506191550 | 54 | 0 | 0.0 | 2.0 | 0.00 | 0.00 | 0.00 | 97 | 1005.0 |
| 20260506191046 | 54 | 0 | 0.0 | 2.0 | 0.00 | 0.00 | 0.00 | 97 | 1005.1 |
| 20260506190544 | 54 | 324 | 0.0 | 0.0 | 0.00 | 0.00 | 0.00 | 97 | 1005.2 |
| 20260506190050 | 54 | 0 | 0.0 | 1.0 | 0.00 | 0.00 | 0.00 | 97 | 1005.4 |
| 20260506185544 | 54 | 0 | 0.0 | 1.0 | 0.00 | 0.00 | 0.00 | 97 | 1005.4 |
| 20260506185049 | 54 | 0 | 0.0 | 1.0 | 0.00 | 0.00 | 0.00 | 97 | 1005.5 |
| 20260506184603 | 54 | 0 | 0.0 | 2.0 | 0.00 | 0.00 | 0.00 | 97 | 1005.5 |
| 20260506184044 | 53 | 324 | 0.0 | 2.0 | 0.00 | 0.00 | 0.00 | 97 | 1005.4 |
| 20260506183544 | 53 | 324 | 0.0 | 2.0 | 0.00 | 0.00 | 0.00 | 97 | 1005.6 |
| 20260506183059 | 53 | 0 | 0.0 | 1.0 | 0.00 | 0.00 | 0.00 | 97 | 1005.8 |
| 20260506182542 | 53 | 324 | 0.0 | 1.0 | 0.00 | 0.00 | 0.00 | 97 | 1005.9 |
| 20260506182044 | 53 | 0 | 0.0 | 2.0 | 0.00 | 0.00 | 0.00 | 97 | 1005.9 |
| 20260506181548 | 53 | 0 | 0.0 | 2.0 | 0.00 | 0.00 | 0.00 | 97 | 1006.0 |
| 20260506181042 | 53 | 0 | 0.0 | 3.0 | 0.00 | 0.00 | 0.00 | 97 | 1005.9 |
| 20260506180544 | 53 | 0 | 0.0 | 3.0 | 0.00 | 0.00 | 0.00 | 97 | 1005.7 |
| 20260506180058 | 53 | 0 | 0.0 | 1.0 | 0.00 | 0.00 | 0.00 | 97 | 1005.9 |
| 20260506175545 | 53 | 0 | 0.0 | 1.0 | 0.00 | 0.00 | 0.00 | 97 | 1005.9 |
| 20260506175043 | 53 | 0 | 0.0 | 3.0 | 0.00 | 0.00 | 0.00 | 97 | 1005.9 |
| 20260506174549 | 53 | 0 | 0.0 | 3.0 | 0.00 | 0.00 | 0.00 | 97 | 1005.9 |
| 20260506174044 | 53 | 324 | 0.0 | 3.0 | 0.00 | 0.00 | 0.00 | 97 | 1005.7 |
| 20260506173546 | 53 | 324 | 0.0 | 3.0 | 0.00 | 0.00 | 0.00 | 97 | 1005.9 |
| 20260506173052 | 53 | 324 | 0.0 | 3.0 | 0.00 | 0.00 | 0.00 | 97 | 1006.0 |
| 20260506172549 | 54 | 324 | 0.0 | 2.0 | 0.00 | 0.00 | 0.00 | 97 | 1006.1 |
| 20260506172054 | 54 | 324 | 0.0 | 2.0 | 0.00 | 0.00 | 0.00 | 97 | 1006.1 |
| 20260506171552 | 54 | 0 | 0.0 | 2.0 | 0.00 | 0.00 | 0.00 | 97 | 1005.9 |
| 20260506171044 | 54 | 0 | 0.0 | 1.0 | 0.00 | 0.00 | 0.00 | 98 | 1006.1 |
| 20260506170544 | 54 | 0 | 0.0 | 1.0 | 0.00 | 0.00 | 0.00 | 98 | 1006.1 |
| 20260506170108 | 54 | 0 | 0.0 | 1.0 | 0.00 | 0.00 | 0.00 | 98 | 1006.1 |
| 20260506165548 | 54 | 324 | 0.0 | 2.0 | 0.00 | 0.00 | 0.00 | 98 | 1006.2 |
| 20260506165046 | 54 | 0 | 0.0 | 2.0 | 0.00 | 0.00 | 0.00 | 98 | 1006.2 |
| 20260506164550 | 54 | 0 | 0.0 | 1.0 | 0.00 | 0.00 | 0.00 | 98 | 1006.4 |
| 20260506164046 | 54 | 0 | 0.0 | 1.0 | 0.00 | 0.00 | 0.00 | 98 | 1006.6 |
| 20260506163542 | 54 | 324 | 0.0 | 0.0 | 0.00 | 0.00 | 0.00 | 98 | 1006.7 |
| 20260506163102 | 53 | 0 | 0.0 | 0.0 | 0.00 | 0.00 | 0.00 | 98 | 1006.7 |
| 20260506162543 | 53 | 0 | 0.0 | 0.0 | 0.00 | 0.00 | 0.00 | 98 | 1006.9 |
| 20260506162044 | 53 | 0 | 0.0 | 0.0 | 0.00 | 0.00 | 0.00 | 98 | 1007.2 |
| 20260506161553 | 53 | 0 | 0.0 | 1.0 | 0.00 | 0.00 | 0.00 | 98 | 1007.3 |
| 20260506161043 | 53 | 0 | 0.0 | 1.0 | 0.00 | 0.00 | 0.00 | 98 | 1007.5 |
| 20260506160543 | 53 | 324 | 0.0 | 5.0 | 0.00 | 0.00 | 0.00 | 98 | 1007.4 |
| 20260506160056 | 53 | 0 | 1.0 | 5.0 | 0.00 | 0.00 | 0.00 | 98 | 1007.6 |
| 20260506155543 | 53 | 0 | 0.0 | 1.0 | 0.00 | 0.00 | 0.00 | 98 | 1007.6 |
| 20260506155046 | 53 | 0 | 0.0 | 2.0 | 0.00 | 0.00 | 0.00 | 98 | 1007.5 |
| 20260506154551 | 53 | 0 | 0.0 | 3.0 | 0.00 | 0.00 | 0.00 | 98 | 1007.6 |
| 20260506154043 | 53 | 0 | 0.0 | 3.0 | 0.00 | 0.00 | 0.00 | 98 | 1007.7 |
| 20260506153542 | 53 | 324 | 0.0 | 4.0 | 0.00 | 0.00 | 0.00 | 98 | 1007.8 |
| 20260506153053 | 52 | 324 | 0.0 | 4.0 | 0.00 | 0.00 | 0.00 | 98 | 1007.7 |
| 20260506152544 | 52 | 324 | 0.0 | 2.0 | 0.00 | 0.00 | 0.00 | 98 | 1007.7 |
| 20260506152046 | 52 | 0 | 0.0 | 2.0 | 0.00 | 0.00 | 0.00 | 98 | 1007.9 |
| 20260506151555 | 52 | 0 | 0.0 | 1.0 | 0.00 | 0.00 | 0.00 | 98 | 1007.8 |
| 20260506151048 | 52 | 0 | 0.0 | 1.0 | 0.00 | 0.00 | 0.00 | 98 | 1007.7 |
| 20260506150544 | 52 | 0 | 0.0 | 1.0 | 0.00 | 0.00 | 0.00 | 98 | 1007.7 |
| 20260506150049 | 51 | 0 | 0.0 | 3.0 | 0.00 | 0.00 | 0.00 | 98 | 1007.8 |
| 20260506145544 | 51 | 0 | 0.0 | 3.0 | 0.00 | 0.00 | 0.00 | 98 | 1007.8 |
| 20260506145047 | 51 | 324 | 0.0 | 2.0 | 0.00 | 0.00 | 0.00 | 98 | 1007.6 |
| 20260506144603 | 51 | 0 | 0.0 | 2.0 | 0.00 | 0.00 | 0.00 | 98 | 1007.7 |
| 20260506144043 | 51 | 0 | 0.0 | 1.0 | 0.00 | 0.00 | 0.00 | 98 | 1007.7 |
| 20260506143544 | 52 | 0 | 0.0 | 0.0 | 0.00 | 0.00 | 0.00 | 98 | 1007.6 |
| 20260506143055 | 52 | 324 | 0.0 | 0.0 | 0.00 | 0.00 | 0.00 | 98 | 1007.4 |
| 20260506142543 | 52 | 0 | 0.0 | 0.0 | 0.00 | 0.00 | 0.00 | 98 | 1007.5 |
| 20260506142042 | 51 | 0 | 0.0 | 0.0 | 0.00 | 0.00 | 0.00 | 98 | 1007.6 |
| 20260506141552 | 51 | 0 | 0.0 | 0.0 | 0.00 | 0.00 | 0.00 | 98 | 1007.7 |
| 20260506141043 | 51 | 0 | 0.0 | 0.0 | 0.00 | 0.00 | 0.00 | 98 | 1008.0 |
| 20260506140543 | 50 | 0 | 0.0 | 0.0 | 0.00 | 0.00 | 0.00 | 98 | 1008.1 |
| 20260506140053 | 50 | 0 | 0.0 | 0.0 | 0.00 | 0.00 | 0.00 | 98 | 1008.3 |
| 20260506135545 | 50 | 0 | 0.0 | 0.0 | 0.00 | 0.00 | 0.00 | 98 | 1008.5 |
| 20260506135044 | 50 | 0 | 0.0 | 0.0 | 0.00 | 0.00 | 0.00 | 98 | 1008.7 |
| 20260506134553 | 50 | 0 | 0.0 | 0.0 | 0.00 | 0.00 | 0.00 | 98 | 1008.5 |
| 20260506134043 | 50 | 0 | 0.0 | 0.0 | 0.00 | 0.00 | 0.00 | 98 | 1008.6 |
| 20260506133543 | 50 | 0 | 0.0 | 0.0 | 0.00 | 0.00 | 0.00 | 98 | 1008.5 |
| 20260506133057 | 50 | 0 | 0.0 | 0.0 | 0.00 | 0.00 | 0.00 | 98 | 1008.5 |
| 20260506132543 | 50 | 0 | 0.0 | 0.0 | 0.00 | 0.00 | 0.00 | 98 | 1008.5 |
| 20260506132049 | 50 | 0 | 0.0 | 0.0 | 0.00 | 0.00 | 0.00 | 98 | 1008.3 |
| 20260506131552 | 50 | 0 | 0.0 | 0.0 | 0.00 | 0.00 | 0.00 | 98 | 1008.4 |
| 20260506131045 | 50 | 0 | 0.0 | 0.0 | 0.00 | 0.00 | 0.00 | 98 | 1008.4 |
| 20260506130544 | 49 | 0 | 0.0 | 0.0 | 0.00 | 0.00 | 0.00 | 98 | 1008.4 |
| 20260506130058 | 49 | 0 | 0.0 | 0.0 | 0.00 | 0.00 | 0.00 | 98 | 1008.6 |
| 20260506125550 | 49 | 0 | 0.0 | 0.0 | 0.00 | 0.00 | 0.00 | 98 | 1008.3 |
| 20260506125045 | 49 | 0 | 0.0 | 0.0 | 0.00 | 0.00 | 0.00 | 98 | 1008.5 |
| 20260506124550 | 49 | 0 | 0.0 | 0.0 | 0.00 | 0.00 | 0.00 | 98 | 1008.4 |
| 20260506124045 | 49 | 0 | 0.0 | 0.0 | 0.00 | 0.00 | 0.00 | 98 | 1008.6 |
| 20260506123544 | 49 | 0 | 0.0 | 0.0 | 0.00 | 0.00 | 0.00 | 98 | 1008.6 |
| 20260506123052 | 49 | 0 | 0.0 | 0.0 | 0.00 | 0.00 | 0.00 | 98 | 1008.7 |
| 20260506122544 | 49 | 0 | 0.0 | 0.0 | 0.00 | 0.00 | 0.00 | 98 | 1008.6 |
| 20260506122045 | 48 | 0 | 0.0 | 0.0 | 0.00 | 0.00 | 0.00 | 98 | 1008.7 |
| 20260506121553 | 48 | 0 | 0.0 | 0.0 | 0.00 | 0.00 | 0.00 | 98 | 1008.6 |
| 20260506121043 | 48 | 0 | 0.0 | 0.0 | 0.00 | 0.00 | 0.00 | 98 | 1008.8 |
| 20260506120545 | 47 | 0 | 0.0 | 0.0 | 0.00 | 0.00 | 0.00 | 98 | 1008.8 |
| 20260506120048 | 47 | 0 | 0.0 | 0.0 | 0.00 | 0.00 | 0.00 | 97 | 1009.0 |
| 20260506115544 | 47 | 0 | 0.0 | 0.0 | 0.00 | 0.00 | 0.00 | 97 | 1009.0 |
| 20260506115042 | 47 | 0 | 0.0 | 0.0 | 0.00 | 0.00 | 0.00 | 97 | 1009.2 |
| 20260506114556 | 47 | 0 | 0.0 | 0.0 | 0.00 | 0.00 | 0.00 | 97 | 1009.1 |
| 20260506114043 | 47 | 0 | 0.0 | 0.0 | 0.00 | 0.00 | 0.00 | 97 | 1009.1 |
| 20260506113544 | 47 | 0 | 0.0 | 1.0 | 0.00 | 0.00 | 0.00 | 97 | 1008.9 |
| 20260506113049 | 47 | 0 | 0.0 | 1.0 | 0.00 | 0.00 | 0.00 | 97 | 1009.1 |
| 20260506112545 | 48 | 0 | 0.0 | 1.0 | 0.00 | 0.00 | 0.00 | 97 | 1009.2 |
| 20260506112044 | 49 | 0 | 0.0 | 0.0 | 0.00 | 0.00 | 0.00 | 98 | 1009.1 |
| 20260506111551 | 48 | 0 | 0.0 | 0.0 | 0.00 | 0.00 | 0.00 | 98 | 1009.0 |
| 20260506111044 | 48 | 0 | 0.0 | 0.0 | 0.00 | 0.00 | 0.00 | 98 | 1008.8 |
| 20260506110548 | 48 | 0 | 0.0 | 0.0 | 0.00 | 0.00 | 0.00 | 98 | 1008.8 |
| 20260506110054 | 48 | 0 | 0.0 | 0.0 | 0.00 | 0.00 | 0.00 | 98 | 1008.8 |
| 20260506105544 | 47 | 0 | 0.0 | 0.0 | 0.00 | 0.00 | 0.00 | 98 | 1008.8 |
| 20260506105044 | 47 | 0 | 0.0 | 0.0 | 0.00 | 0.00 | 0.00 | 98 | 1008.9 |
| 20260506104556 | 46 | 0 | 0.0 | 0.0 | 0.00 | 0.00 | 0.00 | 98 | 1008.8 |
| 20260506104043 | 46 | 0 | 0.0 | 0.0 | 0.00 | 0.00 | 0.00 | 97 | 1008.8 |
| 20260506103544 | 46 | 0 | 0.0 | 0.0 | 0.00 | 0.00 | 0.00 | 97 | 1009.1 |
| 20260506103053 | 46 | 0 | 0.0 | 0.0 | 0.00 | 0.00 | 0.00 | 97 | 1008.9 |
| 20260506102546 | 46 | 0 | 0.0 | 0.0 | 0.00 | 0.00 | 0.00 | 97 | 1009.0 |
| 20260506102046 | 46 | 0 | 0.0 | 0.0 | 0.00 | 0.00 | 0.00 | 97 | 1008.9 |
| 20260506101550 | 46 | 0 | 0.0 | 0.0 | 0.00 | 0.00 | 0.00 | 97 | 1009.0 |
| 20260506101045 | 46 | 0 | 0.0 | 0.0 | 0.00 | 0.00 | 0.00 | 97 | 1009.2 |
| 20260506100544 | 46 | 0 | 0.0 | 0.0 | 0.00 | 0.00 | 0.00 | 97 | 1009.3 |
| 20260506100053 | 46 | 0 | 0.0 | 0.0 | 0.00 | 0.00 | 0.00 | 97 | 1009.1 |
| 20260506095544 | 46 | 0 | 0.0 | 0.0 | 0.00 | 0.00 | 0.00 | 97 | 1009.1 |
| 20260506095044 | 46 | 0 | 0.0 | 0.0 | 0.00 | 0.00 | 0.00 | 96 | 1009.5 |
| 20260506094603 | 47 | 0 | 0.0 | 0.0 | 0.00 | 0.00 | 0.00 | 97 | 1009.5 |
| 20260506094046 | 47 | 0 | 0.0 | 0.0 | 0.00 | 0.00 | 0.00 | 97 | 1009.6 |
| 20260506093543 | 47 | 0 | 0.0 | 0.0 | 0.00 | 0.00 | 0.00 | 97 | 1009.3 |
| 20260506093050 | 47 | 0 | 0.0 | 0.0 | 0.00 | 0.00 | 0.00 | 97 | 1009.2 |
| 20260506092543 | 47 | 0 | 0.0 | 0.0 | 0.00 | 0.00 | 0.00 | 97 | 1009.1 |
| 20260506092043 | 47 | 0 | 0.0 | 0.0 | 0.00 | 0.00 | 0.00 | 97 | 1009.0 |
| 20260506091549 | 47 | 0 | 0.0 | 0.0 | 0.00 | 0.00 | 0.00 | 97 | 1009.1 |
| 20260506091045 | 47 | 0 | 0.0 | 0.0 | 0.00 | 0.00 | 0.00 | 97 | 1009.1 |
| 20260506090545 | 47 | 0 | 0.0 | 0.0 | 0.00 | 0.00 | 0.00 | 97 | 1009.5 |
| 20260506090056 | 48 | 0 | 0.0 | 0.0 | 0.00 | 0.00 | 0.00 | 97 | 1009.3 |
| 20260506085541 | 48 | 0 | 0.0 | 0.0 | 0.00 | 0.00 | 0.00 | 97 | 1008.8 |
| 20260506085041 | 48 | 0 | 0.0 | 0.0 | 0.00 | 0.00 | 0.00 | 97 | 1009.0 |
| 20260506084602 | 47 | 0 | 0.0 | 0.0 | 0.00 | 0.00 | 0.00 | 97 | 1008.8 |
| 20260506084044 | 47 | 0 | 0.0 | 0.0 | 0.00 | 0.00 | 0.00 | 97 | 1008.3 |
| 20260506083544 | 47 | 0 | 0.0 | 0.0 | 0.00 | 0.00 | 0.00 | 97 | 1008.7 |
| 20260506083050 | 47 | 0 | 0.0 | 0.0 | 0.00 | 0.00 | 0.00 | 96 | 1009.4 |
| 20260506082544 | 48 | 0 | 0.0 | 0.0 | 0.00 | 0.00 | 0.00 | 97 | 1009.3 |
| 20260506082044 | 48 | 0 | 0.0 | 0.0 | 0.00 | 0.00 | 0.00 | 97 | 1009.4 |
| 20260506081548 | 48 | 0 | 0.0 | 0.0 | 0.00 | 0.00 | 0.00 | 97 | 1009.4 |
| 20260506081044 | 48 | 0 | 0.0 | 0.0 | 0.00 | 0.00 | 0.00 | 97 | 1008.8 |
| 20260506080542 | 48 | 0 | 0.0 | 0.0 | 0.00 | 0.00 | 0.00 | 97 | 1009.1 |
| 20260506073059 | 48 | 0 | 0.0 | 0.0 | 0.00 | 0.00 | 0.00 | 97 | 1009.5 |
| 20260506072543 | 48 | 0 | 0.0 | 0.0 | 0.00 | 0.00 | 0.00 | 96 | 1009.3 |
| 20260506072044 | 48 | 0 | 0.0 | 0.0 | 0.00 | 0.00 | 0.00 | 96 | 1009.8 |
| 20260506071555 | 49 | 0 | 0.0 | 0.0 | 0.00 | 0.00 | 0.00 | 97 | 1009.7 |
| 20260506071044 | 49 | 0 | 0.0 | 0.0 | 0.00 | 0.00 | 0.00 | 97 | 1009.5 |
| 20260506070547 | 49 | 0 | 0.0 | 0.0 | 0.00 | 0.00 | 0.00 | 97 | 1009.3 |
| 20260506062044 | 49 | 0 | 0.0 | 1.0 | 0.00 | 0.00 | 0.00 | 96 | 1009.2 |
| 20260506061600 | 49 | 0 | 0.0 | 1.0 | 0.00 | 0.00 | 0.00 | 96 | 1009.2 |
| 20260506061044 | 50 | 0 | 0.0 | 0.0 | 0.00 | 0.00 | 0.00 | 96 | 1009.3 |
| 20260506060543 | 50 | 0 | 0.0 | 0.0 | 0.00 | 0.00 | 0.00 | 96 | 1009.1 |
| 20260506051047 | 51 | 324 | 2.0 | 4.0 | 0.00 | 0.00 | 0.00 | 95 | 1009.2 |
| 20260506050544 | 52 | 324 | 1.0 | 4.0 | 0.00 | 0.00 | 0.00 | 96 | 1008.6 |
| 20260506050108 | 52 | 324 | 1.0 | 4.0 | 0.00 | 0.00 | 0.00 | 97 | 1008.5 |
| 20260506045043 | 51 | 324 | 0.0 | 3.0 | 0.00 | 0.00 | 0.00 | 97 | 1008.1 |
| 20260506044601 | 51 | 0 | 0.0 | 1.0 | 0.00 | 0.00 | 0.00 | 97 | 1007.7 |
| 20260506044043 | 51 | 0 | 0.0 | 1.0 | 0.00 | 0.00 | 0.00 | 98 | 1007.8 |
| 20260506043543 | 51 | 0 | 0.0 | 2.0 | 0.00 | 0.00 | 0.00 | 98 | 1007.9 |
| 20260506043052 | 52 | 0 | 1.0 | 2.0 | 0.00 | 0.00 | 0.00 | 98 | 1007.9 |
| 20260506042543 | 50 | 324 | 0.0 | 0.0 | 0.00 | 0.00 | 0.00 | 97 | 1008.2 |
| 20260506042043 | 50 | 0 | 0.0 | 0.0 | 0.00 | 0.00 | 0.00 | 97 | 1007.8 |
| 20260506041552 | 51 | 0 | 0.0 | 0.0 | 0.00 | 0.00 | 0.00 | 97 | 1007.7 |
| 20260506041043 | 50 | 0 | 0.0 | 0.0 | 0.00 | 0.00 | 0.00 | 97 | 1007.6 |